STARLINK-33583, 63503

Orbit data source: Space-Track

STARLINK-33583, 63503 is a payload satellite owned by SpaceX/Seattle (US) in LEO that was launched on Mon, 07 Apr 2025 UTC via an FALCON 9 launch vehicle from the Air Force Western Test Range (AFWTR). Payload-class satellites include a variety of spacecraft equipped with specific instruments for various scientific and technological missions. These include communications satellites like Starlink; space stations such as the ISS; scientific satellites like the Hubble; Earth observation satellites from companies like Planet Labs, Umbra, and HawkEye 360; GPS; miniature CubeSats for education and research; and military/defense satellites.

Loading next visibility...
Identifier
63503, 2025-071L
Orbit
LEO
Last TLE update
19 hours ago
Origin
Manufacturer
SpaceX/Seattle
Mission
Operational Commercial Communications
Bus & Motor
STARLINK V2MO, Unknown motor
Mass
575 kg wet, ~530 kg dry
Launch date (UTC)
2025-04-07 (1 month ago)
Launch vehicle
FALCON 9
Launch site
Air Force Western Test Range (AFWTR)
Object type
Payload
Rocket body
Debris
Shape & HBR
Box + 1 Pan, 29 m
Radar Cross Section
41.120 m², Large (>1 m²)

Expand to show TLE details & history

TLE from 19 hours ago
0 STARLINK-33583
1 63503U 25071L   25128.56602650 -.00170554  00000-0 -32807-2 0  9996
2 63503  53.1628 121.4707 0002179  52.0966 308.0239 15.47928199  6009
Epoch: 2025-05-08T13:35Z
Definitive object data (Epoch: 2025-05-08T13:35:04.689Z)
Latitude
-0.00005°
Longitude
51.06644°
Altitude
422.782 km
Speed
7.659 km/s
True Right ascension
08h 05m 52s
True Declination
0° 00' 00"
Sunlit
Object was in daylight at TLE epoch
Visualization TLE readout
Latitude
20.9262°
Longitude
63.89679°
Altitude
422.818 km
Speed
7.661 km/s
Apparent Right ascension
07h 01m 48s
Apparent Declination
-10° 00' 20"
Sunlit
Object is in daylight
Visualization observer readout
Local Sidereal Time
16:26:48
Azimuth
300.256° NW
Elevation
-44.471°
Doppler factor
1
Orbital elements
Apogee altitude
424.528 km
Perigee altitude
421.564 km
Semi-major axis
6,801.183 km
Eccentricity
0.0002179
Inclination
53.1628°
RAAN
121.4707°
Arg. of periapsis
52.0966°
True anomaly
308.00423°
Mean anomaly
308.0239°
Eccentric anomaly
308.01406°
Mean motion
3.8696 °/min
BSTAR
-0.0032807
Orbital period
93.03 mins
Loading maneuver chart data...
Loading SW <> Apogee altitude chart data...
Loading historical data...
Loading historical data...
Loading historical data...
Loading historical data...
Loading historical data...
Loading historical data...
Loading historical data...

STARLINK-33583 Visibility forecast

Observer location: undefined°, undefined°

Span
Click to sort rows by Start time (UTC) header in descending order
Start Az.
Max El. time (UTC)
Max El. Az.
Max El.
End time (UTC)
End Az.
6 mins2025-05-09 08:39:40.466Z319.721° NNW2025-05-09 08:42:40.466Z38.506° NE38.127°2025-05-09 08:45:40.466Z113.324° SE
4 mins2025-05-10 01:24:40.466Z189.585° SSW2025-05-10 01:26:40.466Z118.485° SE31.194°2025-05-10 01:28:40.466Z70.521° E
4 mins2025-05-10 03:01:40.466Z290.476° WNW2025-05-10 03:03:40.466Z345.184° N22.266°2025-05-10 03:05:40.466Z25.028° NE
5 mins2025-05-10 07:54:40.466Z336.457° NNW2025-05-10 07:56:40.466Z31.384° NE28.321°2025-05-10 07:59:40.466Z97.769° ESE
|